Shepherd Bay, Nunavut

9:18 AM CDT on August 16, 2017 (GMT -0500)
Shepherd Bay

Weather History for CYUS - May, 2013

Change the Weather History Date:

Sunday, May 19, 2013

  Actual Average Record
Temperature  
Mean Temperature 20 °F -  
Max Temperature 25 °F 32 °F - ()
Min Temperature 12 °F 20 °F - ()
Degree Days  
Heating Degree Days 45    
Moisture  
Dew Point -    
Average Humidity    
Maximum Humidity    
Minimum Humidity    
Precipitation  
Precipitation 0.00 in 0.02 in - ()
Sea Level Pressure  
Sea Level Pressure 30.17 in    
Wind  
Wind Speed 15 mph ()    
Max Wind Speed 21 mph    
Max Gust Speed -    
Visibility 9.0 miles    
Events      
T = Trace of Precipitation, MM = Missing Value Source: Averaged Metar Reports

Daily Weather History Graph

Daily Weather History Graph

Search for Another Location

Airport or City:

Trip Planner

Search our weather history database for the weather conditions in past years. The results will help you decide how hot, cold, wet, or windy it might be!

Date:

Astronomy

May. 19, 2013 Rise Set
Actual Time 2:03 AM CDT 12:27 AM CDT
Civil Twilight Sun does not set Sun does not set
Nautical Twilight Sun does not set Sun does not set
Astronomical Twilight Sun does not set Sun does not set
Moon 2:27 PM CDT (5/19) 2:37 AM CDT (5/19)
Length of Visible Light 24h 00m
Length of Day
22h 24m
Waxing Gibbous, 65% of the Moon is Illuminated
May 19
Waxing Gibbous
May 24
Full
May 31
Last Quarter
Jun 8
New
Jun 16
First Quarter

Hourly Weather History & Observations

Time (CDT) Temp. Windchill Dew Point Humidity Pressure Visibility Wind Dir Wind Speed Gust Speed Precip Events Conditions
12:00 AM 24.8 °F 10.7 °F - N/A% 30.08 in 9.0 mi NNE 19.6 mph - N/A   Unknown
12:15 AM 24.8 °F 11.9 °F - N/A% 30.07 in 9.0 mi NE 16.1 mph - N/A   Unknown
12:35 AM 24.8 °F 11.9 °F - N/A% 30.07 in 9.0 mi NE 16.1 mph - N/A   Unknown
12:56 AM 23.0 °F 10.1 °F - N/A% 30.08 in 9.0 mi NNE 15.0 mph - N/A   Unknown
1:00 AM 23 °F - - % 30.10 in 9 mi NNE 15.0 mph - -  
1:00 AM 23.0 °F 9.6 °F - N/A% 30.10 in 9.0 mi NNE 16.1 mph - N/A   Unknown
1:27 AM 23.0 °F 10.6 °F - N/A% 30.09 in 9.0 mi NNE 13.8 mph - N/A   Unknown
1:36 AM 23.0 °F 10.6 °F - N/A% 30.09 in 9.0 mi NNE 13.8 mph - N/A   Unknown
1:46 AM 23.0 °F 10.1 °F - N/A% 30.09 in 9.0 mi North 15.0 mph - N/A   Unknown
1:47 AM 23.0 °F 10.1 °F - N/A% 30.09 in 9.0 mi North 15.0 mph - N/A   Unknown
1:56 AM 21.2 °F 7.8 °F - N/A% 30.10 in 9.0 mi North 15.0 mph - N/A   Unknown
1:57 AM 21.2 °F 7.8 °F - N/A% 30.10 in 9.0 mi NNE 15.0 mph - N/A   Unknown
2:00 AM 21.2 °F 7.3 °F - N/A% 30.11 in 9.0 mi NNE 16.1 mph - N/A   Unknown
2:34 AM 21.2 °F 7.3 °F - N/A% 30.10 in 9.0 mi NNE 16.1 mph - N/A   Unknown
2:52 AM 21.2 °F 6.4 °F - N/A% 30.10 in 9.0 mi NNE 18.4 mph - N/A   Unknown
3:00 AM 21.2 °F 5.6 °F - N/A% 30.12 in 9.0 mi NNE 20.7 mph - N/A   Unknown
3:03 AM 21.2 °F 6.4 °F - N/A% 30.11 in 9.0 mi NNE 18.4 mph - N/A   Unknown
3:48 AM 21.2 °F 6.8 °F - N/A% 30.12 in 9.0 mi NE 17.3 mph - N/A   Unknown
3:57 AM 21.2 °F 7.3 °F - N/A% 30.12 in 9.0 mi NE 16.1 mph - N/A   Unknown
4:00 AM 21 °F - - % 30.14 in 9 mi NE 17.3 mph - -  
4:00 AM 21.2 °F 7.3 °F - N/A% 30.14 in 9.0 mi NNE 16.1 mph - N/A   Unknown
4:08 AM 21.2 °F 6.8 °F - N/A% 30.12 in 9.0 mi NNE 17.3 mph - N/A   Unknown
4:13 AM 21.2 °F 7.3 °F - N/A% 30.12 in 9.0 mi NNE 16.1 mph - N/A   Unknown
4:31 AM 21.2 °F 7.3 °F - N/A% 30.13 in 9.0 mi NNE 16.1 mph - N/A   Unknown
4:40 AM 21.2 °F 7.3 °F - N/A% 30.13 in 9.0 mi NNE 16.1 mph - N/A   Unknown
4:43 AM 21.2 °F 6.8 °F - N/A% 30.13 in 9.0 mi NNE 17.3 mph - N/A   Unknown
4:51 AM 21.2 °F 6.4 °F - N/A% 30.13 in 9.0 mi NNE 18.4 mph - N/A   Unknown
4:58 AM 21.2 °F 6.0 °F - N/A% 30.13 in 9.0 mi NNE 19.6 mph - N/A   Unknown
5:00 AM 21.2 °F 6.0 °F - N/A% 30.15 in 9.0 mi NNE 19.6 mph - N/A   Unknown
5:18 AM 21.2 °F 7.3 °F - N/A% 30.14 in 9.0 mi North 16.1 mph - N/A   Unknown
6:00 AM 19.4 °F 4.1 °F - N/A% 30.16 in 9.0 mi North 18.4 mph - N/A   Unknown
6:07 AM 19.4 °F 4.5 °F - N/A% 30.15 in 9.0 mi NNE 17.3 mph - N/A   Unknown
7:00 AM 20 °F - - % 30.18 in 9 mi NNE 13.8 mph - -  
7:00 AM 19.4 °F 6.0 °F - N/A% 30.18 in 9.0 mi NNE 13.8 mph - N/A   Unknown
7:54 AM 19.4 °F 5.5 °F - N/A% 30.17 in 9.0 mi North 15.0 mph - N/A   Unknown
8:00 AM 21.2 °F 7.8 °F - N/A% 30.19 in 9.0 mi North 15.0 mph - N/A   Unknown
8:06 AM 21.2 °F 7.3 °F - N/A% 30.17 in 9.0 mi North 16.1 mph - N/A   Unknown
8:38 AM 21.2 °F 7.3 °F - N/A% 30.18 in 9.0 mi NNE 16.1 mph - N/A   Unknown
9:00 AM 21.2 °F 6.0 °F - N/A% 30.20 in 9.0 mi North 19.6 mph - N/A   Unknown
9:04 AM 21.2 °F 6.4 °F - N/A% 30.18 in 9.0 mi NNE 18.4 mph - N/A   Unknown
9:13 AM 21.2 °F 6.4 °F - N/A% 30.18 in 9.0 mi North 18.4 mph - N/A   Unknown
9:15 AM 21.2 °F 6.4 °F - N/A% 30.18 in 9.0 mi NNE 18.4 mph - N/A   Unknown
9:21 AM 21.2 °F 6.4 °F - N/A% 30.18 in 9.0 mi North 18.4 mph - N/A   Unknown
9:38 AM 21.2 °F 6.8 °F - N/A% 30.19 in 9.0 mi NNE 17.3 mph - N/A   Unknown
10:00 AM 21 °F - - % 30.21 in 9 mi NNE 18.4 mph - -  
10:00 AM 21.2 °F 6.8 °F - N/A% 30.21 in 9.0 mi NNE 17.3 mph - N/A   Unknown
11:00 AM 21.2 °F 6.4 °F - N/A% 30.21 in 9.0 mi NNE 18.4 mph - N/A   Unknown
11:59 AM 21.2 °F 6.0 °F - N/A% 30.20 in 9.0 mi NNE 19.6 mph - N/A   Unknown
12:00 PM 23.0 °F 8.7 °F - N/A% 30.22 in 9.0 mi NNE 18.4 mph - N/A   Unknown
12:46 PM 23.0 °F 8.7 °F - N/A% 30.20 in 9.0 mi NE 18.4 mph - N/A   Unknown
1:00 PM 23 °F - - % 30.22 in 9 mi NE 16.1 mph - -  
1:00 PM 23.0 °F 9.6 °F - N/A% 30.22 in 9.0 mi NE 16.1 mph - N/A   Unknown
2:00 PM 23.0 °F 12.4 °F - N/A% 30.24 in 9.0 mi NE 10.4 mph - N/A   Unknown
3:00 PM 24.8 °F 14.6 °F - N/A% 30.25 in 9.0 mi NE 10.4 mph - N/A   Unknown
4:00 PM 25 °F - - % 30.26 in 9 mi NE 9.2 mph - -  
4:00 PM 24.8 °F 15.3 °F - N/A% 30.26 in 9.0 mi NE 9.2 mph - N/A   Unknown
4:08 PM 24.8 °F 14.0 °F - N/A% 30.24 in 9.0 mi NE 11.5 mph - N/A   Unknown
5:00 PM 23.0 °F 13.1 °F - N/A% 30.27 in 9.0 mi NE 9.2 mph - N/A   Unknown
6:00 PM 23.0 °F 13.1 °F - N/A% 30.28 in 9.0 mi ENE 9.2 mph - N/A   Unknown
7:00 PM 21 °F - - % 30.29 in 9 mi NE 13.8 mph - -  
7:00 PM 21.2 °F 8.9 °F - N/A% 30.29 in 9.0 mi NNE 12.7 mph - N/A   Unknown
8:00 PM 21.2 °F 10.9 °F - N/A% 30.30 in 9.0 mi ENE 9.2 mph - N/A   Unknown
9:00 PM 17.6 °F 6.4 °F - N/A% 30.30 in 9.0 mi NE 9.2 mph - N/A   Unknown
10:00 PM 15 °F - - % 30.30 in 9 mi NE 10.4 mph - -  
10:00 PM 15.8 °F 2.7 °F - N/A% 30.30 in 9.0 mi NE 11.5 mph - N/A   Unknown
11:00 PM 12.2 °F -1.0 °F - N/A% 30.30 in 9.0 mi NE 10.4 mph - N/A   Unknown